Погода в Эль-Бахе

Саудовская Аравия     20°00′34″N   41°27′56″E
темп.,
°C
ветер,
м/с
пор.,
м/с
влажн.,
%
обл.,
%
осадки,
мм/ч
давл.,
гПа
погр.,
м
28 февраля, вс
вс2800:00+15ююз359268 0.1 1013294
03:00+14ююз359447 0.1 1011274
06:00+13ююз249215 0.0 1012195
09:00+16ююз466110 0.0 1013494
12:00+17ююз78716 0.1 1012872
15:00+17ююз677434 1.2 1010669
18:00+15юз568447 0.8 1012508
21:00+14юз469053 1.4 1014408
1 марта, пн
пн100:00+14ююз469365 0.2 1014359
03:00+13юз569575 0.6 1012444
06:00+13ююз349587 0.3 1014322
09:00+14ююз578380 0.5 1015580
12:00+16ююз678072 0.4 1014692
15:00+15юз678576 1.4 1011560
18:00+14юз688863 0.8 1013616
21:00+14ююз579279 1.3 1015504
2 марта, вт
вт200:00+13ююз479277 0.1 1016391
03:00+13юз249371 0.1 1014238
06:00+13ююз249288 0.1 1015280
09:00+14ю348592 0.1 1016441
12:00+18ююз566562 0.0 1014792
15:00+19юз676450 0.0 1011978
18:00+16юз567548 0.1 1013616
21:00+15юз248526 0.1 1015322
3 марта, ср
ср300:00+14ююз23884 0.0 1015246
03:00+14ююз229233 0.0 1013179
06:00+14ю119282 0.0 1014138
09:00+16ю357446 0.0 1015440
12:00+19ююз79600 0.0 1013868
15:00+19юз89634 0.0 1010985
18:00+17юз798022 0.0 1012737
21:00+15ююз599046 0.1 1014462
4 марта, чт
чт400:00+15ююз598451 0.0 1014331
03:00+14ююз367326 0.0 1013234
06:00+13ююз23730 0.0 1014116
09:00+16ююз47650 0.0 1015412
12:00+19юз89580 0.0 1013769
15:00+19юз89653 0.0 1011883
18:00+17юз688018 0.0 1013550
21:00+15юз349026 0.0 1015353